Regional Weather Roundup
Issued by NWS

Home | Current Version | Previous Version | Graphics & Text | Print | Product List | Glossary On
Versions: 1 2 3 4 5 6 7 8 9 10 11 12 13 14 15 16 17 18 19 20 21 22 23 24 25 26 27 28 29 30 31 32 33 34 35 36 37 38 39 40 41 42 43 44 45 46 47 48 49 50
000
ASUS45 KCYS 110210
RWRWY

WYOMING REGIONAL WEATHER ROUNDUP
NATIONAL WEATHER SERVICE CHEYENNE WY
700 PM MST WED FEB 10 2016

NOTE:  "FAIR" INDICATES FEW OR NO CLOUDS BELOW 12,000 FEET
WITH NO SIGNIFICANT WEATHER AND/OR OBSTRUCTIONS TO VISIBILITY.

WYZ001-110300-
YELLOWSTONE NATIONAL PARK

CITY           SKY/WX    TMP DP  RH WIND       PRES   REMARKS
LK YELLOWSTONE   N/A     26  19  74 CALM      30.36F
W YELLOWSTONE  NOT AVBL

$$
WYZ002>013-054>058-071-098>099-110300-
NORTHERN WYOMING

CITY           SKY/WX    TMP DP  RH WIND       PRES   REMARKS
JACKSON        CLEAR     16  14  93 CALM      30.37S
CODY           FAIR      54  19  26 W16G26    30.15F
GREYBULL       FAIR      39  27  62 CALM      30.15R
WORLAND        FAIR      30  25  81 CALM      30.16R
SHERIDAN       CLEAR     45  23  42 W8        30.08R
BUFFALO        FAIR      48  23  37 CALM      30.13R
GILLETTE       FAIR      34  26  72 NW3       30.10R
HULETT         FAIR      43  27  52 N5        30.12R
NEWCASTLE      FAIR      45  21  39 NW10      30.09S

$$
WYZ014>020-022>026-101>103-110300-
CENTRAL WYOMING

CITY           SKY/WX    TMP DP  RH WIND       PRES   REMARKS
BIG PINEY      FAIR      31  19  61 N6        30.35R WCI  25
PINEDALE         N/A     32  21  64 W8        30.35R WCI  25
DUBOIS         FAIR      36  14  41 NW10      30.30S WCI  28
LANDER         FAIR      41  19  41 SW6       30.18S
RIVERTON       FAIR      27  17  66 W3        30.20R
CASPER         FAIR      39  22  50 SW20      30.17R WCI  29
DOUGLAS        FAIR      35  24  64 W5          N/A  WCI  31

$$
WYZ021-027>030-104>119-110300-
SOUTHERN WYOMING

CITY           SKY/WX    TMP DP  RH WIND       PRES   REMARKS
EVANSTON       FAIR      33  16  49 SW8       30.41R WCI  26
FORT BRIDGER   CLEAR     37  19  48 W16       30.41R WCI  28
ROCK SPRINGS   FAIR      36  21  54 W16       30.31F WCI  26
DIXON          FAIR      22  13  68 E5        30.38R WCI  16
RAWLINS        FAIR      33  18  53 W21G28    30.28R WCI  21
SARATOGA       FAIR      32  18  55 N3        30.31R
LARAMIE        FAIR      33  17  51 SE6       30.23R WCI  28
CHEYENNE       FAIR      41  16  36 NW7       30.18R
TORRINGTON     FAIR      39  24  55 W6        30.12R WCI  35
PINE BLUFFS    FAIR      37  25  60 W13       30.16R WCI  29

$$



USA.gov is the U.S. government's official web portal to all federal, state and local government web resources and services.